This demonstration page uses our WeatherBlox Daily Observations layout. Learn more.

Left ArrowRight Arrow

39.12711, -84.51439

Hourly Observations for October 7, 2022

Temp ( °F °C ) Dew Point ( °F °C ) Humidity (%) Winds ( mph kmh ) Pressure ( in mb ) Visibility ( mi km ) Precip ( " mm )
12:53 am 00:53 Clear 50 10 50 10 100 100 Calm 30.06 1018 8 13 0.00 0.00
1:48 am 01:48 Clear with Mist and Fog 48 9 48 9 100 100 Calm 30.08 1019 1 1 0.00 0.00
1:53 am 01:53 Clear with Fog 48 8.9 48 8.9 100 100 Calm 30.06 1018 1 1 0.00 0.00
2:02 am 02:02 Clear with Mist and Fog 49 9.4 49 9.4 100 100 Calm 30.08 1019 3 4 0.00 0.00
2:09 am 02:09 Clear with Mist and Fog 49 9.4 48 8.9 97 97 Calm 30.08 1019 5 8 0.00 0.00
2:53 am 02:53 Clear with Mist and Fog 49 9.4 48 8.9 97 97 Calm 30.06 1018 3 4 0.00 0.00
3:01 am 03:01 Clear with Mist and Fog 48 8.9 48 8.9 100 100 Calm 30.08 1019 1 1 0.00 0.00
3:13 am 03:13 Clear with Mist and Fog 49 9.4 49 9.4 100 100 Calm 30.08 1019 2 3 0.00 0.00
3:29 am 03:29 Mostly Clear with Fog 47 8.3 46 7.8 97 97 Calm 30.09 1019 0 0 0.00 0.00
3:48 am 03:48 Mostly Clear with Mist and Fog 48 9 48 9 100 100 Calm 30.09 1019 1 2 0.00 0.00
3:53 am 03:53 Clear with Mist and Fog 49 9.4 49 9.4 100 100 Calm 30.07 1018 3 4 0.00 0.00
4:13 am 04:13 Clear with Mist and Fog 47 8.3 47 8.3 100 100 Calm 30.10 1019 3 5 0.00 0.00
4:29 am 04:29 Clear with Mist and Fog 48 8.9 48 8.9 100 100 Calm 30.11 1020 3 4 0.00 0.00
4:37 am 04:37 Clear with Mist and Fog 48 8.9 47 8.3 96 96 Calm 30.11 1020 5 8 0.00 0.00
4:53 am 04:53 Clear with Mist and Fog 47 8.3 46 7.8 97 97 Calm 30.09 1019 5 8 0.00 0.00
5:53 am 05:53 Clear 54 12.2 49 9.4 83 83 N 7 11 30.12 1020 10 16 0.00 0.00
6:53 am 06:53 Clear 53 11.7 46 7.8 77 77 N 7 11 30.14 1021 10 16 0.00 0.00
7:53 am 07:53 Sunny 52 11.1 45 7.2 77 77 N 7 11 30.16 1021 10 16 0.00 0.00
8:53 am 08:53 Mostly Sunny 55 12.8 47 8.3 74 74 N 8 13 30.19 1022 10 16 0.00 0.00
9:53 am 09:53 Cloudy 56 13.3 48 8.9 75 75 NNW 10 17 30.21 1023 10 16 0.00 0.00
10:53 am 10:53 Partly Cloudy 60 15.6 46 7.8 60 60 NNE 10 17 30.23 1024 10 16 0.00 0.00
11:53 am 11:53 Partly Cloudy 60 15.6 44 6.7 55 55 N 10 17 30.24 1024 10 16 0.00 0.00
12:53 pm 12:53 Partly Cloudy 62 16.7 43 6.1 50 50 NNW 6 9 30.24 1024 10 16 0.00 0.00
1:53 pm 13:53 Cloudy 62 16.7 42 5.6 48 48 NNE 12 19 30.23 1024 10 16 0.00 0.00
2:53 pm 14:53 Mostly Cloudy 64 17.8 41 5 43 43 N 13 20 30.22 1024 10 16 0.00 0.00
3:53 pm 15:53 Partly Cloudy 60 15.6 38 3.3 44 44 N 13 20 30.23 1024 10 16 0.00 0.00
4:53 pm 16:53 Mostly Sunny 60 15.6 37 2.8 42 42 N 17 28 30.25 1024 10 16 0.00 0.00
5:53 pm 17:53 Sunny 58 14.4 36 2.2 44 44 N 13 20 30.26 1025 10 16 0.00 0.00
6:53 pm 18:53 Sunny 54 12.2 36 2.2 50 50 N 9 15 30.28 1025 10 16 0.00 0.00
7:53 pm 19:53 Clear 51 10.6 35 1.7 54 54 N 7 11 30.30 1026 10 16 0.00 0.00
8:53 pm 20:53 Clear 47 8.3 38 3.3 71 71 Calm 30.32 1027 10 16 0.00 0.00
9:53 pm 21:53 Clear 44 6.7 39 3.9 82 82 Calm 30.34 1027 10 16 0.00 0.00
10:53 pm 22:53 Clear 41 5 38 3.3 89 89 Calm 30.35 1028 10 16 0.00 0.00
11:53 pm 23:53 Clear 40 4.4 38 3.3 93 93 Calm 30.36 1028 10 16 0.00 0.00

Powered by AerisWeather